User: anonymous   Login
Location: Unspecified
(0.0000°N, 0.0000°E)
Time: 11:44:52
(UTC+02:00)
Language:

Cosmos 1315 Rocket - Orbit

View from above orbital plane
View from above orbital plane
View from above satellite
View from above satellite

Ground track
Ground track

The orbit data is extracted from the following two-line orbital elements,

1 12904U 81103B   15089.46873898  .00002643  00000-0  18885-3 0  9993
2 12904 081.1758 119.5971 0028623 204.6701 155.3154 15.03848323371059
Epoch (UTC): 30 March 2015 11:14:59
Eccentricity: 0.0028623
inclination: 81.1758°
perigee height: 535 km
apogee height: 575 km
right ascension of ascending node: 119.5971°
argument of perigee: 204.6701°
revolutions per day: 15.03848323
mean anomaly at epoch: 155.3154°
orbit number at epoch: 37105

The dashed part of the orbit path shows where the satellite is in the earth's shadow,  

DLR